Temperature
3 3 4 4 5 5 5 5 6 6 6 7 7 7 8 8 8 8 8 8 8 8 8 8 9 9 9 9 9 9 9 8 8 8 8 8 8 8 9 9 9 9 9
2 3 3 4 4 5 5 5 6 6 6 6 6 7 7 7 7 7 8 8 8 8 8 8 8 8 8 8 8 8 8 8 8 8 7 7 7 8 8 8 8 8 8
1 2 3 3 3 4 4 5 5 5 5 6 6 6 6 6 7 7 7 7 7 7 7 7 7 7 7 7 7 7 8 8 7 7 7 7 7 7 7 8 8 8 8
1 1 2 2 3 3 3 4 4 5 5 5 6 6 6 6 6 6 6 7 7 7 7 7 7 7 7 7 7 7 7 7 7 7 7 7 7 7 7 7 7 7 8
0 0 1 1 2 3 3 3 4 4 5 5 5 5 5 5 5 6 6 6 6 6 6 6 6 6 6 7 6 6 7 7 7 7 7 7 7 7 7 6 7 7 7
-1 -0 0 1 1 2 2 3 3 4 4 4 4 4 5 5 5 5 5 5 6 6 6 6 6 6 6 6 6 6 6 6 6 6 6 6 6 6 6 6 6 6 7
-1 -1 -0 0 1 1 2 2 2 3 3 3 3 4 4 4 4 4 5 5 5 5 5 5 5 5 5 6 6 6 6 6 6 6 6 6 6 6 6 6 6 5 6
-2 -1 -1 -0 0 1 1 1 2 2 2 3 3 3 3 4 4 4 4 4 4 4 5 5 5 5 5 5 5 5 5 5 5 5 6 6 6 6 6 6 6 5 5
-2 -2 -1 -1 -0 0 0 1 1 1 2 2 2 2 3 3 3 3 3 4 4 4 4 4 4 4 4 4 4 5 5 5 5 5 5 5 5 5 5 5 5 5 5
-2 -2 -2 -1 -1 -0 -0 -0 0 1 1 1 2 2 2 2 3 3 3 3 3 3 3 3 3 3 4 4 4 4 4 4 4 5 5 5 5 5 5 5 5 5 5
-2 -2 -2 -2 -1 -1 -1 -1 -0 -0 0 1 1 1 1 2 2 2 2 2 2 2 2 3 3 3 3 3 3 3 3 3 4 4 4 4 4 4 4 5 5 5 4
-3 -2 -2 -2 -2 -1 -1 -1 -1 -1 -0 0 0 1 1 1 1 1 2 1 1 2 2 2 2 2 2 2 2 2 3 3 3 3 3 3 3 4 4 4 4 4 4
-3 -3 -3 -3 -2 -2 -2 -2 -1 -1 -1 -1 -0 0 0 0 1 1 1 1 1 1 1 1 1 2 2 2 2 2 2 2 2 2 3 3 3 3 3 3 3 3 3
-3 -3 -3 -3 -3 -3 -3 -2 -2 -1 -1 -1 -1 -1 -0 -0 -0 0 0 0 0 0 1 1 1 1 1 1 1 1 1 2 2 2 2 2 2 2 3 3 3 3 3
-4 -4 -4 -3 -3 -3 -3 -3 -2 -2 -2 -2 -1 -1 -1 -1 -1 -1 -1 -0 -0 -0 -0 0 0 0 0 0 1 1 1 1 1 1 1 1 2 2 2 2 2 2 2
-4 -4 -4 -4 -4 -3 -3 -3 -3 -3 -2 -2 -2 -2 -2 -2 -1 -1 -1 -1 -1 -1 -1 -0 -1 -0 -0 -0 -0 -0 -0 0 0 1 1 1 1 1 1 1 1 1 2
-5 -5 -4 -4 -4 -4 -4 -4 -3 -3 -3 -3 -2 -2 -2 -2 -2 -2 -2 -2 -2 -1 -1 -1 -1 -1 -1 -1 -1 -1 -1 -1 -0 -0 -0 0 0 0 0 1 1 1 1
-5 -5 -5 -4 -4 -4 -4 -4 -4 -4 -3 -3 -3 -3 -3 -3 -2 -2 -2 -2 -2 -2 -2 -2 -2 -2 -1 -1 -1 -1 -1 -1 -1 -1 -1 -0 -0 -0 -0 -0 0 0 0
-5 -5 -5 -5 -5 -4 -4 -4 -4 -4 -4 -4 -4 -3 -3 -3 -3 -3 -3 -3 -3 -3 -2 -2 -2 -2 -2 -2 -2 -2 -2 -2 -1 -1 -1 -1 -1 -1 -1 -1 -1 -0 -0
-5 -5 -5 -5 -5 -5 -5 -5 -5 -5 -5 -4 -4 -4 -4 -4 -3 -3 -3 -3 -3 -3 -3 -3 -3 -3 -2 -2 -2 -2 -2 -2 -2 -2 -2 -1 -1 -1 -1 -1 -1 -1 -1
-6 -6 -6 -6 -5 -5 -5 -5 -5 -5 -5 -5 -5 -4 -4 -4 -4 -4 -4 -4 -4 -4 -4 -4 -3 -3 -3 -3 -3 -3 -3 -3 -3 -2 -2 -2 -2 -2 -2 -2 -2 -2 -2
-6 -6 -6 -6 -6 -6 -6 -6 -6 -6 -6 -5 -5 -5 -4 -4 -4 -4 -4 -4 -4 -4 -4 -4 -4 -4 -4 -4 -3 -3 -3 -3 -3 -3 -3 -3 -3 -2 -2 -2 -2 -2 -2
-6 -6 -6 -6 -6 -6 -6 -6 -6 -6 -6 -6 -5 -5 -5 -5 -5 -5 -5 -5 -5 -5 -5 -5 -5 -5 -4 -4 -4 -4 -4 -4 -4 -3 -3 -3 -3 -3 -3 -3 -3 -3 -3
-7 -7 -7 -7 -7 -6 -7 -7 -6 -6 -6 -6 -6 -6 -5 -5 -5 -5 -5 -6 -6 -6 -5 -5 -5 -5 -5 -5 -5 -5 -4 -4 -4 -4 -4 -4 -4 -4 -3 -3 -3 -3 -3
-7 -7 -7 -7 -7 -7 -7 -7 -7 -7 -6 -6 -6 -6 -6 -6 -6 -6 -6 -6 -6 -6 -6 -6 -6 -6 -5 -5 -5 -5 -5 -5 -5 -5 -4 -4 -4 -4 -4 -4 -4 -4 -4
-7 -7 -7 -7 -7 -7 -7 -7 -7 -7 -7 -7 -7 -7 -7 -7 -7 -7 -6 -6 -6 -6 -6 -6 -6 -6 -6 -6 -5 -5 -5 -5 -5 -5 -5 -5 -5 -5 -5 -5 -5 -5 -4
Wind_Speed
4 4 4 3 2 2 2 2 2 1 1 2 2 2 2 1 2 3 3 4 4 4 4 3 3 4 4 4 4 4 5 4 4 3 2 1 1 1 2 2 2 3 3
5 4 4 3 3 2 2 2 1 1 1 1 2 2 2 1 1 2 2 3 3 4 4 3 3 3 3 4 4 4 3 3 3 3 3 2 2 2 1 2 2 3 3
5 5 4 3 3 3 3 2 1 0 1 2 2 2 2 1 1 1 1 1 3 4 4 4 3 3 4 4 4 4 4 4 4 3 2 2 3 2 2 3 3 3 3
4 4 4 3 4 4 3 2 1 1 1 2 3 3 2 2 0 1 1 0 2 3 3 3 3 3 3 4 4 4 3 4 4 3 2 1 1 2 2 2 3 3 3
3 4 4 4 4 4 4 2 1 1 1 1 2 3 2 1 1 1 1 1 1 2 2 2 2 2 2 3 4 3 3 3 4 4 3 2 2 3 3 3 3 3 3
4 4 4 4 4 4 4 3 1 1 1 2 1 2 2 2 2 1 1 0 0 1 1 1 1 2 2 3 4 3 4 3 4 4 3 3 3 3 3 3 3 3 2
4 4 4 4 4 4 4 4 3 1 1 1 1 1 1 2 2 1 1 0 0 1 1 1 2 2 2 2 3 3 4 4 4 4 4 3 3 2 3 3 3 3 2
4 4 4 4 4 5 5 4 3 3 2 1 1 0 0 1 1 1 1 1 2 1 2 2 2 2 2 2 3 3 3 3 4 4 4 3 3 3 3 3 3 3 3
4 4 5 4 4 4 4 3 3 3 2 1 1 1 0 0 1 1 1 2 2 1 2 2 2 2 2 2 3 3 3 3 4 4 4 4 3 3 3 3 4 4 4
5 5 4 4 4 3 3 2 2 2 2 2 1 1 1 1 1 2 2 2 2 2 2 2 2 2 2 2 3 3 3 3 3 3 4 4 3 3 3 3 4 4 4
5 5 4 4 4 3 2 3 2 2 2 2 2 2 2 1 1 2 2 2 2 2 2 3 3 3 3 3 3 4 4 4 4 3 4 4 4 3 3 3 4 4 4
5 5 5 4 4 4 3 3 3 3 3 3 3 3 2 1 2 2 2 2 3 3 3 3 3 3 3 3 4 4 5 5 5 5 5 5 4 4 4 4 4 4 4
5 5 5 4 4 4 4 4 4 4 3 3 3 3 2 2 2 2 2 2 3 3 3 2 3 3 4 4 5 5 6 6 6 6 6 6 5 5 4 4 4 4 4
5 5 5 4 4 4 4 4 4 4 4 3 3 3 3 2 2 2 2 3 3 3 3 3 4 4 4 5 5 5 6 6 6 6 6 6 6 6 5 4 5 4 4
6 5 5 5 4 4 4 4 4 4 4 4 4 4 3 3 2 2 2 3 3 3 3 3 3 4 4 4 5 5 5 6 6 5 6 5 5 5 4 4 5 4 4
7 6 6 6 5 5 5 5 5 4 4 4 4 4 3 3 3 3 2 3 3 3 3 4 4 4 4 4 5 5 5 6 6 6 5 5 5 5 5 5 5 6 6
8 7 6 6 6 6 5 5 5 4 4 4 4 4 4 3 3 3 3 3 3 4 4 4 4 5 5 5 6 5 5 6 6 6 6 5 5 6 5 5 5 5 5
8 8 7 7 7 6 5 5 5 4 4 4 4 4 3 3 3 3 3 3 3 3 4 4 4 5 5 5 6 6 6 5 6 6 6 6 5 5 6 5 5 4 5
7 7 7 7 7 6 5 5 5 4 4 4 4 4 4 3 3 4 4 4 3 4 4 4 5 5 5 5 6 5 4 4 5 5 6 6 6 6 6 5 5 5 4
6 6 7 6 6 6 5 4 5 4 5 5 5 5 4 4 4 4 4 4 4 4 3 4 4 5 5 5 6 6 4 4 5 5 5 6 7 7 7 6 6 6 5
7 6 6 5 5 5 4 4 4 5 5 5 5 5 4 4 4 4 4 4 3 3 3 4 4 4 4 5 6 6 4 4 5 4 4 5 7 7 8 7 6 6 5
7 6 6 6 5 4 4 4 5 5 5 5 5 4 4 4 3 3 3 3 3 3 3 3 4 3 3 4 5 6 6 6 5 5 4 4 6 7 7 6 5 6 5
7 6 6 6 5 4 4 5 5 5 4 5 5 4 4 3 3 3 3 3 3 3 3 3 3 3 3 3 4 5 6 6 5 4 5 5 5 5 5 5 5 4 4
7 6 6 6 6 5 5 5 5 4 4 4 4 4 3 3 3 3 3 3 3 3 3 3 3 3 3 3 3 3 3 4 3 3 3 4 4 4 3 3 3 3 3
6 6 5 5 6 6 5 5 4 4 4 4 4 3 3 3 3 3 3 3 4 4 4 3 3 3 4 4 5 4 3 3 3 3 2 3 2 2 2 2 2 2 2
6 6 6 6 6 6 6 5 4 3 3 3 3 3 2 2 2 2 3 3 4 5 5 5 5 4 5 5 4 4 4 4 3 3 2 2 3 3 3 2 2 2 2
Wind_Direction
322 332 335 334 341 358 345 330 319 303 155 143 150 153 142 128 112 96 109 117 119 123 127 127 146 149 157 158 159 153 151 153 152 143 125 111 148 180 174 168 163 154 157
332 339 340 346 348 350 340 338 323 226 179 160 166 174 183 152 114 89 100 127 129 136 140 139 148 159 159 157 158 155 161 164 170 165 157 173 186 190 192 197 198 194 177
331 336 333 336 347 338 335 333 331 279 188 159 138 130 127 117 103 93 97 129 142 144 143 148 149 162 168 170 171 173 175 178 185 192 194 190 201 180 198 212 214 215 207
331 330 330 339 342 332 319 316 322 39 47 141 147 147 152 152 212 186 182 122 139 142 149 151 156 162 174 176 181 185 191 183 193 194 223 240 182 200 193 203 214 217 224
326 331 334 340 342 343 329 310 11 46 50 99 155 155 155 149 120 131 114 117 125 132 139 150 160 172 180 183 188 193 196 196 202 199 193 199 199 218 226 218 217 228 230
332 335 337 344 348 348 351 345 25 61 72 69 116 148 163 154 134 136 108 78 139 139 140 143 168 197 193 192 196 200 205 206 210 209 205 202 203 209 221 229 225 237 240
324 336 340 346 346 348 360 7 14 15 51 72 72 129 166 165 166 184 188 220 243 253 219 223 207 213 213 205 203 204 212 210 210 215 217 220 222 213 226 225 227 244 257
322 328 329 337 342 349 360 2 7 9 3 43 50 109 138 179 198 208 211 228 235 237 249 243 223 216 215 215 207 204 211 214 215 221 224 220 218 212 217 219 216 232 243
323 325 328 331 335 341 348 352 352 354 347 330 345 334 233 223 233 225 226 236 244 250 247 245 231 218 216 220 210 208 213 216 221 224 228 223 220 218 220 221 225 229 235
321 321 322 325 327 332 340 344 331 329 334 321 304 283 256 233 260 232 233 243 252 257 236 232 227 216 223 225 217 212 214 212 221 226 230 230 226 224 217 220 228 239 238
311 309 314 318 323 328 333 329 316 323 328 323 307 301 284 263 269 246 242 251 254 248 232 227 229 221 222 228 225 216 215 219 222 224 227 235 232 227 222 221 224 230 235
306 307 314 322 328 329 328 326 328 327 319 313 308 304 302 297 285 285 276 268 254 248 240 228 227 225 226 231 233 226 220 220 222 223 225 230 231 227 226 221 224 228 235
312 316 320 325 325 323 322 321 325 318 308 303 306 310 303 291 286 288 284 275 262 253 250 240 237 232 230 232 233 231 225 224 225 224 225 227 226 228 227 227 227 229 231
313 318 319 322 324 320 318 318 320 318 314 311 313 310 308 294 286 283 271 264 258 250 244 242 243 239 235 235 234 235 232 226 226 226 226 227 226 232 227 231 230 226 226
318 318 316 319 322 324 324 324 324 325 325 327 326 317 319 313 306 288 275 266 260 256 248 242 246 247 242 239 237 234 237 228 226 227 228 229 227 238 242 238 235 226 225
314 317 319 320 321 321 320 321 321 321 323 323 317 314 319 316 314 309 297 279 268 263 257 247 242 245 245 248 247 240 237 232 226 228 230 230 226 230 238 243 240 235 229
312 313 316 315 314 313 314 315 317 318 318 315 313 310 312 309 307 307 303 289 282 272 263 256 249 248 248 244 244 242 241 238 230 227 228 230 231 229 232 233 229 236 243
310 315 318 314 312 311 311 313 312 313 311 309 312 309 309 306 305 300 292 289 286 280 271 262 254 253 250 245 245 243 242 241 235 231 229 227 229 227 223 225 226 232 241
307 310 313 311 308 307 309 312 312 311 310 309 309 305 300 297 295 293 292 292 287 283 280 274 260 254 254 247 247 245 238 240 238 234 233 229 228 224 220 225 227 233 244
313 314 314 311 310 309 312 308 305 306 304 303 302 299 292 287 286 286 289 288 282 281 286 282 275 263 257 248 245 247 236 237 238 232 231 231 230 223 223 226 229 230 236
312 313 311 307 304 306 304 297 299 295 298 301 299 295 291 289 284 285 287 286 282 282 284 282 282 278 269 252 248 250 240 234 238 235 233 230 224 227 233 238 239 237 235
313 312 310 306 303 299 290 287 289 294 299 299 298 293 292 294 286 284 288 288 282 278 279 281 286 285 280 267 256 257 254 247 242 240 239 233 227 232 240 244 234 235 233
309 310 306 305 304 297 281 278 286 293 294 294 292 289 292 288 280 280 284 285 278 270 270 271 276 285 288 274 262 261 258 252 249 244 237 235 235 240 240 228 223 226 222
308 308 306 304 305 304 291 277 281 284 281 284 287 291 292 290 290 286 282 278 276 271 270 271 273 279 282 280 272 258 250 242 242 243 230 224 230 232 220 217 219 223 217
309 308 304 302 304 306 299 291 285 280 280 283 286 293 291 286 288 290 289 280 279 275 274 269 269 271 275 282 284 273 257 250 236 236 240 231 215 208 203 205 209 214 213
307 309 308 304 304 306 301 298 294 283 279 286 291 291 291 287 281 285 300 310 293 305 296 291 285 288 294 300 293 279 267 255 231 229 225 225 216 213 213 214 221 227 219
Height
1513 1513 1512 1512 1512 1512 1514 1514 1514 1514 1515 1516 1518 1520 1523 1525 1527 1529 1531 1532 1534 1535 1537 1539 1541 1542 1544 1546 1548 1549 1551 1552 1553 1555 1556 1557 1558 1558 1559 1560 1561 1561 1562
1511 1511 1510 1510 1510 1510 1510 1510 1511 1513 1513 1514 1516 1519 1521 1523 1525 1527 1529 1531 1532 1533 1535 1537 1538 1540 1542 1543 1545 1547 1548 1549 1551 1552 1554 1555 1557 1556 1556 1557 1558 1559 1560
1509 1508 1508 1508 1508 1508 1508 1508 1509 1510 1511 1513 1515 1517 1519 1521 1523 1524 1526 1528 1529 1531 1533 1534 1536 1538 1539 1541 1542 1544 1546 1547 1548 1550 1552 1553 1554 1554 1554 1554 1555 1556 1557
1509 1508 1507 1506 1506 1506 1506 1507 1507 1507 1509 1511 1512 1514 1515 1517 1519 1521 1523 1525 1527 1528 1530 1532 1534 1535 1537 1538 1539 1541 1543 1544 1545 1547 1548 1550 1551 1552 1552 1552 1553 1553 1554
1509 1508 1506 1506 1506 1505 1505 1505 1505 1506 1507 1509 1510 1511 1513 1515 1517 1519 1521 1522 1524 1526 1527 1530 1531 1533 1534 1536 1537 1539 1540 1541 1542 1544 1545 1546 1548 1549 1550 1550 1550 1551 1551
1508 1507 1506 1505 1505 1505 1504 1503 1504 1505 1505 1507 1508 1509 1510 1512 1514 1516 1518 1520 1521 1523 1524 1526 1528 1530 1531 1533 1534 1536 1537 1538 1540 1541 1542 1543 1544 1545 1547 1547 1547 1548 1548
1508 1506 1505 1504 1504 1503 1503 1502 1502 1503 1503 1505 1506 1507 1508 1510 1512 1513 1515 1517 1519 1520 1522 1524 1525 1527 1528 1530 1531 1533 1534 1535 1536 1538 1539 1540 1541 1543 1544 1544 1545 1545 1545
1507 1506 1505 1504 1503 1502 1501 1501 1501 1501 1502 1503 1504 1505 1506 1507 1509 1511 1512 1514 1515 1517 1519 1521 1522 1524 1525 1527 1528 1529 1530 1532 1533 1534 1535 1537 1538 1539 1541 1542 1542 1542 1543
1507 1505 1504 1503 1502 1501 1500 1499 1500 1500 1501 1501 1502 1503 1504 1505 1506 1508 1509 1510 1512 1514 1515 1517 1519 1520 1522 1523 1524 1525 1527 1528 1529 1530 1532 1533 1534 1535 1537 1538 1539 1541 1540
1505 1504 1503 1502 1501 1500 1499 1499 1499 1499 1499 1500 1500 1501 1502 1503 1504 1505 1506 1508 1509 1510 1512 1513 1515 1516 1518 1519 1520 1521 1523 1524 1525 1526 1527 1528 1530 1531 1533 1534 1535 1536 1537
1505 1503 1502 1501 1500 1499 1498 1498 1498 1497 1497 1498 1498 1499 1500 1501 1502 1503 1503 1505 1506 1507 1508 1510 1511 1512 1514 1515 1516 1517 1519 1520 1521 1522 1523 1524 1526 1527 1529 1530 1531 1532 1533
1504 1502 1500 1499 1498 1497 1497 1496 1495 1495 1495 1496 1497 1497 1497 1498 1499 1499 1500 1501 1502 1504 1505 1505 1507 1508 1509 1511 1512 1513 1514 1515 1516 1517 1519 1520 1522 1523 1524 1526 1527 1528 1528
1503 1501 1499 1497 1496 1495 1494 1494 1493 1493 1494 1495 1495 1494 1494 1495 1496 1496 1497 1498 1499 1500 1500 1501 1503 1504 1505 1507 1508 1509 1510 1511 1512 1513 1514 1515 1517 1518 1520 1521 1522 1523 1524
1502 1500 1498 1496 1495 1494 1493 1492 1492 1492 1492 1492 1492 1492 1492 1493 1493 1494 1495 1495 1496 1496 1496 1498 1499 1500 1501 1502 1503 1504 1505 1506 1507 1508 1509 1511 1512 1513 1514 1516 1517 1518 1518
1501 1499 1497 1495 1494 1493 1492 1491 1490 1490 1490 1489 1489 1489 1489 1490 1490 1491 1492 1492 1492 1493 1493 1494 1495 1496 1497 1497 1498 1499 1500 1501 1502 1504 1505 1506 1507 1508 1509 1511 1512 1513 1514
1500 1498 1496 1494 1492 1491 1490 1489 1488 1487 1487 1487 1487 1487 1487 1487 1488 1488 1488 1489 1489 1489 1490 1490 1491 1491 1492 1493 1494 1495 1496 1497 1498 1499 1500 1501 1502 1503 1504 1506 1507 1509 1510
1500 1498 1496 1493 1492 1490 1489 1488 1486 1486 1485 1485 1485 1485 1485 1485 1485 1485 1485 1486 1486 1486 1486 1486 1487 1487 1488 1489 1490 1491 1492 1492 1493 1494 1495 1496 1497 1498 1500 1500 1502 1503 1504
1498 1496 1494 1492 1491 1489 1487 1486 1485 1484 1483 1483 1483 1483 1483 1482 1482 1483 1483 1483 1483 1483 1483 1483 1483 1483 1483 1484 1485 1487 1488 1488 1488 1489 1490 1492 1492 1494 1495 1496 1497 1498 1499
1497 1495 1493 1491 1489 1487 1486 1484 1483 1482 1481 1481 1480 1480 1480 1480 1480 1480 1480 1480 1480 1480 1479 1479 1479 1479 1479 1480 1481 1483 1483 1483 1484 1485 1486 1487 1488 1489 1491 1492 1492 1493 1494
1496 1493 1491 1489 1487 1485 1484 1482 1481 1480 1479 1479 1478 1478 1478 1477 1477 1477 1477 1477 1477 1476 1476 1475 1475 1475 1475 1475 1477 1478 1479 1479 1479 1480 1481 1483 1484 1485 1486 1487 1488 1488 1489
1493 1491 1489 1487 1485 1483 1482 1480 1479 1478 1477 1477 1476 1476 1475 1475 1475 1475 1474 1474 1473 1473 1472 1472 1472 1471 1471 1471 1472 1473 1474 1475 1475 1476 1477 1478 1479 1480 1481 1482 1483 1484 1485
1491 1489 1486 1484 1483 1481 1480 1477 1476 1475 1475 1474 1473 1473 1473 1472 1472 1472 1471 1470 1470 1469 1469 1468 1468 1468 1468 1468 1468 1469 1470 1470 1471 1471 1472 1473 1474 1475 1476 1477 1478 1479 1480
1488 1486 1483 1481 1480 1478 1477 1475 1474 1473 1472 1472 1471 1470 1470 1469 1469 1468 1467 1467 1467 1466 1466 1465 1465 1464 1464 1464 1464 1465 1465 1465 1466 1466 1467 1468 1469 1471 1471 1472 1473 1474 1476
1485 1483 1480 1478 1476 1475 1474 1472 1471 1470 1470 1469 1468 1467 1466 1466 1466 1465 1465 1464 1464 1463 1463 1462 1462 1462 1461 1461 1461 1461 1461 1461 1462 1462 1463 1464 1465 1466 1467 1467 1468 1469 1470
1482 1479 1477 1475 1473 1472 1471 1470 1469 1468 1467 1466 1465 1464 1464 1463 1462 1462 1462 1462 1461 1461 1460 1460 1459 1459 1458 1458 1458 1458 1458 1458 1458 1459 1459 1460 1461 1461 1462 1463 1464 1465 1466
1479 1477 1475 1473 1471 1469 1468 1467 1466 1465 1464 1463 1462 1461 1461 1460 1460 1459 1459 1459 1459 1458 1458 1457 1457 1456 1456 1456 1455 1455 1455 1455 1455 1456 1455 1456 1457 1458 1458 1459 1460 1461 1461